Hourly Weather Bolshoe Aldarkino

Today, 20 June, Sunday

Time Temperature Precipitation Wind Pressure Humidity
00:00 +16°C° 0 mm 3 mps 753 mmHg 86%
01:00 +16°C° 0 mm 2 mps 753 mmHg 88%
02:00 +16°C° 0 mm 2 mps 753 mmHg 90%
03:00 +16°C° 0 mm 2 mps 753 mmHg 92%
04:00 +17°C° 0 mm 3 mps 753 mmHg 87%
05:00 +19°C° 0 mm 3 mps 753 mmHg 83%
06:00 +20°C° 0 mm 3 mps 753 mmHg 78%
07:00 +22°C° 0 mm 4 mps 753 mmHg 73%
08:00 +25°C° 0 mm 4 mps 753 mmHg 68%
09:00 +27°C° 0 mm 4 mps 753 mmHg 63%
10:00 +28°C° 0 mm 4 mps 753 mmHg 59%
11:00 +29°C° 0 mm 4 mps 753 mmHg 55%
12:00 +30°C° 0 mm 4 mps 753 mmHg 52%
13:00 +30°C° 0 mm 4 mps 753 mmHg 51%
14:00 +30°C° 0 mm 4 mps 753 mmHg 51%
15:00 +30°C° 0 mm 5 mps 753 mmHg 50%
16:00 +30°C° 0 mm 4 mps 753 mmHg 56%
17:00 +29°C° 0 mm 3 mps 752 mmHg 61%
18:00 +28°C° 0 mm 3 mps 752 mmHg 67%
19:00 +26°C° 0 mm 2 mps 753 mmHg 73%
20:00 +24°C° 0 mm 2 mps 753 mmHg 79%
21:00 +23°C° 0 mm 2 mps 753 mmHg 85%
22:00 +21°C° 0 mm 2 mps 753 mmHg 87%
23:00 +20°C° 0 mm 2 mps 753 mmHg 89%

Tomorrow, 21 June, Monday

Time Temperature Precipitation Wind Pressure Humidity
00:00 +21°C° 0 mm 1 mps 753 mmHg 91%
01:00 +20°C° 0 mm 1 mps 754 mmHg 90%
02:00 +19°C° 0 mm 2 mps 754 mmHg 90%
03:00 +18°C° 0 mm 2 mps 754 mmHg 90%
04:00 +19°C° 0 mm 2 mps 754 mmHg 83%
05:00 +20°C° 0 mm 2 mps 755 mmHg 76%
06:00 +21°C° 0 mm 2 mps 755 mmHg 70%
07:00 +24°C° 0 mm 2 mps 755 mmHg 64%
08:00 +25°C° 0 mm 2 mps 755 mmHg 59%
09:00 +27°C° 0 mm 2 mps 755 mmHg 53%
10:00 +28°C° 0 mm 1 mps 755 mmHg 51%
11:00 +29°C° 0 mm 1 mps 755 mmHg 48%
12:00 +30°C° 0 mm 1 mps 755 mmHg 46%
13:00 +30°C° 0 mm 1 mps 755 mmHg 45%
14:00 +30°C° 0 mm 1 mps 754 mmHg 45%
15:00 +31°C° 0 mm 1 mps 754 mmHg 45%
16:00 +30°C° 0 mm 1 mps 754 mmHg 49%
17:00 +30°C° 0 mm 1 mps 754 mmHg 54%
18:00 +29°C° 0 mm 1 mps 753 mmHg 59%
19:00 +28°C° 0 mm 1 mps 753 mmHg 60%
20:00 +26°C° 0 mm 1 mps 754 mmHg 60%
21:00 +25°C° 0 mm 1 mps 754 mmHg 61%
22:00 +25°C° 0 mm 1 mps 754 mmHg 60%
23:00 +24°C° 0 mm 1 mps 754 mmHg 59%

Day after tomorrow, 22 June, Tuesday

Time Temperature Precipitation Wind Pressure Humidity
00:00 +24°C° 0 mm 1 mps 754 mmHg 58%
01:00 +24°C° 0 mm 1 mps 754 mmHg 59%
02:00 +23°C° 0 mm 1 mps 754 mmHg 60%
03:00 +23°C° 0 mm 1 mps 754 mmHg 62%
04:00 +24°C° 0 mm 1 mps 754 mmHg 63%
05:00 +25°C° 0 mm 1 mps 754 mmHg 65%
06:00 +25°C° 0 mm 1 mps 754 mmHg 67%
07:00 +27°C° 0 mm 2 mps 754 mmHg 62%
08:00 +28°C° 0 mm 2 mps 754 mmHg 58%
09:00 +30°C° 0 mm 2 mps 754 mmHg 54%
10:00 +30°C° 0 mm 3 mps 754 mmHg 51%
11:00 +31°C° 0 mm 3 mps 754 mmHg 47%
12:00 +33°C° 0 mm 3 mps 754 mmHg 44%
13:00 +33°C° 0 mm 3 mps 754 mmHg 44%
14:00 +33°C° 0 mm 3 mps 754 mmHg 43%
15:00 +33°C° 0 mm 3 mps 754 mmHg 43%
16:00 +31°C° 0 mm 3 mps 753 mmHg 48%
17:00 +31°C° 0 mm 2 mps 753 mmHg 54%
18:00 +30°C° 0 mm 2 mps 753 mmHg 59%
19:00 +28°C° 0 mm 2 mps 753 mmHg 62%
20:00 +27°C° 0 mm 2 mps 753 mmHg 66%
21:00 +26°C° 0 mm 2 mps 753 mmHg 70%
22:00 +25°C° 0 mm 2 mps 753 mmHg 73%
23:00 +24°C° 0 mm 1 mps 753 mmHg 76%

23 June, Wednesday

Time Temperature Precipitation Wind Pressure Humidity
00:00 +23°C° 0 mm 1 mps 753 mmHg 79%
01:00 +23°C° 0 mm 1 mps 753 mmHg 80%
02:00 +23°C° 0 mm 1 mps 753 mmHg 80%
03:00 +22°C° 0 mm 1 mps 753 mmHg 81%
04:00 +23°C° 0 mm 1 mps 753 mmHg 77%
05:00 +25°C° 0 mm 1 mps 753 mmHg 73%
06:00 +26°C° 0 mm 2 mps 753 mmHg 69%
07:00 +27°C° 0 mm 2 mps 753 mmHg 64%
08:00 +29°C° 0 mm 2 mps 753 mmHg 59%
09:00 +30°C° 0 mm 3 mps 753 mmHg 54%
10:00 +31°C° 0 mm 3 mps 752 mmHg 50%
11:00 +33°C° 0 mm 4 mps 752 mmHg 47%
12:00 +34°C° 0 mm 4 mps 752 mmHg 43%
13:00 +34°C° 0 mm 4 mps 752 mmHg 42%
14:00 +34°C° 0 mm 4 mps 752 mmHg 40%
15:00 +34°C° 0 mm 4 mps 752 mmHg 39%
16:00 +33°C° 0 mm 4 mps 751 mmHg 47%
17:00 +30°C° 0 mm 4 mps 751 mmHg 55%
18:00 +29°C° 0 mm 4 mps 751 mmHg 63%
19:00 +27°C° 0 mm 3 mps 751 mmHg 67%
20:00 +25°C° 0 mm 3 mps 751 mmHg 72%
21:00 +24°C° 0 mm 2 mps 751 mmHg 76%
22:00 +23°C° 0 mm 2 mps 751 mmHg 77%
23:00 +23°C° 0 mm 1 mps 751 mmHg 79%

24 June, Thursday

Time Temperature Precipitation Wind Pressure Humidity
00:00 +22°C° 0 mm 1 mps 751 mmHg 80%
01:00 +22°C° 0 mm 1 mps 751 mmHg 81%
02:00 +21°C° 0 mm 2 mps 750 mmHg 83%
03:00 +21°C° 0 mm 2 mps 750 mmHg 84%
04:00 +23°C° 0 mm 2 mps 750 mmHg 80%
05:00 +24°C° 0 mm 2 mps 750 mmHg 76%
06:00 +25°C° 0 mm 3 mps 750 mmHg 73%
07:00 +26°C° 0.4 mm 3 mps 750 mmHg 70%
08:00 +28°C° 0.4 mm 4 mps 750 mmHg 67%
09:00 +29°C° 0.4 mm 4 mps 750 mmHg 65%
10:00 +29°C° 0.6 mm 4 mps 750 mmHg 61%
11:00 +30°C° 0.6 mm 4 mps 750 mmHg 58%
12:00 +31°C° 0.6 mm 3 mps 750 mmHg 54%
13:00 +31°C° 0.2 mm 3 mps 750 mmHg 53%
14:00 +32°C° 0.2 mm 4 mps 750 mmHg 52%
15:00 +32°C° 0.2 mm 4 mps 750 mmHg 50%
16:00 +30°C° 0 mm 4 mps 750 mmHg 54%
17:00 +29°C° 0 mm 4 mps 750 mmHg 58%
18:00 +28°C° 0 mm 4 mps 750 mmHg 61%
19:00 +26°C° 0 mm 3 mps 750 mmHg 66%
20:00 +24°C° 0 mm 3 mps 750 mmHg 71%
21:00 +21°C° 0 mm 2 mps 751 mmHg 75%
22:00 +21°C° 0 mm 2 mps 751 mmHg 81%
23:00 +20°C° 0 mm 2 mps 751 mmHg 86%

25 June, Friday

Time Temperature Precipitation Wind Pressure Humidity
00:00 +19°C° 0 mm 2 mps 751 mmHg 92%
01:00 +18°C° 0 mm 2 mps 751 mmHg 93%
02:00 +18°C° 0 mm 2 mps 751 mmHg 93%
03:00 +17°C° 0 mm 2 mps 751 mmHg 94%
04:00 +18°C° 0 mm 2 mps 751 mmHg 88%
05:00 +19°C° 0 mm 3 mps 751 mmHg 81%
06:00 +20°C° 0 mm 3 mps 752 mmHg 75%
07:00 +23°C° 0 mm 2 mps 752 mmHg 70%
08:00 +24°C° 0 mm 2 mps 752 mmHg 65%
09:00 +26°C° 0 mm 1 mps 752 mmHg 60%
10:00 +27°C° 0 mm 1 mps 752 mmHg 56%
11:00 +28°C° 0 mm 1 mps 751 mmHg 52%
12:00 +29°C° 0 mm 1 mps 751 mmHg 49%
13:00 +30°C° 0 mm 1 mps 751 mmHg 48%
14:00 +30°C° 0 mm 1 mps 751 mmHg 47%
15:00 +30°C° 0 mm 1 mps 751 mmHg 46%
16:00 +30°C° 0 mm 1 mps 750 mmHg 51%
17:00 +30°C° 0 mm 1 mps 750 mmHg 55%
18:00 +29°C° 0 mm 1 mps 750 mmHg 59%
19:00 +27°C° 0.3 mm 1 mps 750 mmHg 65%
20:00 +25°C° 0.3 mm 1 mps 750 mmHg 71%
21:00 +23°C° 0.3 mm 1 mps 750 mmHg 77%
22:00 +23°C° 1.2 mm 1 mps 750 mmHg 81%
23:00 +22°C° 1.2 mm 1 mps 750 mmHg 84%
Show more